This demonstration page uses our WeatherBlox Daily Observations layout. Learn more.

Left ArrowRight Arrow

Hourly Observations for July 15, 2022

Temp ( °F °C ) Dew Point ( °F °C ) Humidity (%) Winds ( mph kmh ) Pressure ( in mb ) Visibility ( mi km ) Precip ( " mm )
12:52 am 00:52 Mostly Cloudy 84 28.9 67 19.4 57 57 S 16 26 29.88 1012 10 16 0.00 0.00
1:52 am 01:52 Mostly Cloudy 82 27.8 68 20 63 63 SSE 13 20 29.88 1012 10 16 0.00 0.00
2:52 am 02:52 Mostly Cloudy 81 27.2 68 20 65 65 S 17 28 29.86 1011 10 16 0.00 0.00
3:52 am 03:52 Mostly Clear 81 27.2 67 19.4 62 62 S 17 28 29.84 1011 10 16 0.00 0.00
4:52 am 04:52 Mostly Clear 80 26.7 66 18.9 62 62 S 20 31 29.85 1011 10 16 0.00 0.00
5:52 am 05:52 Mostly Clear 80 26.7 66 18.9 62 62 S 21 33 29.84 1011 10 16 0.00 0.00
6:52 am 06:52 Mostly Sunny 81 27.2 65 18.3 58 58 S 14 22 29.84 1011 10 16 0.00 0.00
7:52 am 07:52 Mostly Sunny 82 27.8 64 17.8 55 55 SSW 15 24 29.85 1011 10 16 0.00 0.00
8:52 am 08:52 Mostly Sunny 83 28.3 64 17.8 53 53 SW 13 20 29.85 1011 10 16 0.00 0.00
9:52 am 09:52 Mostly Sunny 84 28.9 69 20.6 61 61 WNW 15 24 29.87 1012 10 16 0.00 0.00
10:52 am 10:52 Partly Cloudy 86 30 71 21.7 61 61 WNW 8 13 29.85 1011 10 16 0.00 0.00
11:52 am 11:52 Partly Cloudy 89 31.7 73 22.8 59 59 NW 13 20 29.87 1012 10 16 0.00 0.00
12:52 pm 12:52 Partly Cloudy 90 32.2 74 23.3 59 59 N 16 26 29.88 1012 10 16 0.00 0.00
1:52 pm 13:52 Partly Cloudy 91 32.8 74 23.3 57 57 N 14 22 29.88 1012 10 16 0.00 0.00
2:52 pm 14:52 Partly Cloudy 92 33.3 74 23.3 56 56 NW 13 20 29.88 1012 10 16 0.00 0.00
3:52 pm 15:52 Partly Cloudy 93 33.9 74 23.3 54 54 N 12 19 29.87 1012 10 16 0.00 0.00
4:52 pm 16:52 Mostly Cloudy 93 33.9 75 23.9 56 56 NW 10 17 29.88 1012 10 16 0.00 0.00
5:52 pm 17:52 Mostly Cloudy 92 33.3 75 23.9 58 58 N 10 17 29.88 1012 10 16 0.00 0.00
6:52 pm 18:52 Mostly Cloudy 90 32.2 76 24.4 63 63 N 10 17 29.88 1012 10 16 0.00 0.00
7:52 pm 19:52 Mostly Cloudy 88 31.1 75 23.9 66 66 NE 7 11 29.89 1012 10 16 0.00 0.00
8:52 pm 20:52 Mostly Cloudy 84 28.9 75 23.9 74 74 NNE 6 9 29.90 1012 10 16 0.00 0.00
9:52 pm 21:52 Partly Cloudy 79 26.1 75 23.9 88 88 NNW 5 7 29.92 1013 10 16 0.00 0.00
10:52 pm 22:52 Mostly Cloudy 79 26.1 75 23.9 88 88 N 7 11 29.93 1014 10 16 0.00 0.00
11:52 pm 23:52 Partly Cloudy 80 26.7 74 23.3 82 82 NNE 9 15 29.93 1014 10 16 0.00 0.00

Powered by AerisWeather